NOS860 LIRF-EPGD

Flight info

Callsign NOS860
Flight time N/A
Altitude 40000
Route TIBER DCT INTUD DCT IBENI/N0482F410 DCT ALIVO DCT NAVTI DCT DESEN DCT BIBKA N133 GRUDA Z95 OSLOG
Aircraft B789/H-SDE1E2E3FGHIJ2J3J4J5M1RWXY/LB1D1

Departure

Time N/A
Airport Rome–Fiumicino Leonardo da Vinci International Airport (LIRF)

Arrival

Time 2026-05-05 18:28
Airport Gdańsk Lech Wałęsa Airport (EPGD)
Time Latitude Longitude Altitude Speed Heading
2026-05-05 17:13 46.59583 15.20289 39916 ft 485 kts 14°
2026-05-05 17:14 46.66046 15.23146 39912 ft 486 kts 14°
2026-05-05 17:14 46.72521 15.26015 39901 ft 486 kts 14°
2026-05-05 17:15 46.78986 15.28886 39892 ft 486 kts 14°
2026-05-05 17:15 46.85464 15.31772 39892 ft 487 kts 14°
2026-05-05 17:16 46.91941 15.34663 39895 ft 487 kts 14°
2026-05-05 17:16 46.98414 15.37561 39894 ft 486 kts 14°
2026-05-05 17:17 47.04871 15.40458 39893 ft 485 kts 14°
2026-05-05 17:17 47.11327 15.43362 39892 ft 485 kts 14°
2026-05-05 17:18 47.17785 15.46275 39887 ft 486 kts 14°
2026-05-05 17:18 47.23162 15.48704 39879 ft 487 kts 14°
2026-05-05 17:19 47.29640 15.51641 39868 ft 486 kts 15°
2026-05-05 17:19 47.36102 15.54575 39858 ft 486 kts 15°
2026-05-05 17:20 47.42577 15.57525 39853 ft 486 kts 15°
2026-05-05 17:20 47.49032 15.60472 39841 ft 486 kts 15°
2026-05-05 17:21 47.55485 15.63426 39835 ft 486 kts 15°
2026-05-05 17:22 47.65184 15.67881 39824 ft 486 kts 14°
2026-05-05 17:22 47.71654 15.70862 39812 ft 487 kts 14°
2026-05-05 17:23 47.78116 15.73847 39795 ft 486 kts 14°
2026-05-05 17:23 47.84584 15.76842 39785 ft 487 kts 14°
2026-05-05 17:24 47.91053 15.79847 39778 ft 486 kts 15°
2026-05-05 17:24 47.97477 15.82837 39765 ft 487 kts 15°
2026-05-05 17:25 48.03984 15.85874 39752 ft 494 kts 15°
2026-05-05 17:25 48.10543 15.88947 39748 ft 493 kts 15°
2026-05-05 17:26 48.17090 15.92017 39729 ft 493 kts 15°
2026-05-05 17:26 48.23638 15.95100 39740 ft 494 kts 15°
2026-05-05 17:27 48.30195 15.98193 39736 ft 494 kts 15°
2026-05-05 17:27 48.36748 16.01293 39724 ft 494 kts 15°
2026-05-05 17:28 48.43309 16.04406 39730 ft 495 kts 15°
2026-05-05 17:28 48.49887 16.07535 39731 ft 495 kts 15°
2026-05-05 17:29 48.56459 16.10669 39724 ft 495 kts 15°
2026-05-05 17:29 48.63029 16.13812 39724 ft 496 kts 15°
2026-05-05 17:30 48.69604 16.16966 39719 ft 496 kts 15°
2026-05-05 17:30 48.76180 16.20167 39732 ft 497 kts 20°
2026-05-05 17:31 48.82293 16.24979 39734 ft 499 kts 27°
2026-05-05 17:31 48.88339 16.30147 39736 ft 499 kts 27°
2026-05-05 17:32 48.94407 16.35275 39748 ft 499 kts 27°
2026-05-05 17:32 49.00461 16.40447 39759 ft 498 kts 27°
2026-05-05 17:33 49.06506 16.45605 39774 ft 498 kts 27°
2026-05-05 17:33 49.12547 16.50783 39782 ft 498 kts 28°
2026-05-05 17:34 49.18579 16.55965 39784 ft 497 kts 28°
2026-05-05 17:34 49.24612 16.61163 39784 ft 497 kts 28°
2026-05-05 17:35 49.30631 16.66364 39780 ft 497 kts 28°
2026-05-05 17:35 49.36649 16.71577 39778 ft 497 kts 28°
2026-05-05 17:36 49.42666 16.76806 39777 ft 496 kts 28°
2026-05-05 17:36 49.48668 16.82036 39777 ft 496 kts 28°
2026-05-05 17:37 49.54653 16.87266 39781 ft 495 kts 28°
2026-05-05 17:37 49.60647 16.92519 39775 ft 495 kts 28°
2026-05-05 17:38 49.66638 16.97785 39774 ft 494 kts 28°
2026-05-05 17:38 49.72599 17.03038 39777 ft 494 kts 28°
2026-05-05 17:39 49.78561 17.08309 39779 ft 493 kts 28°
2026-05-05 17:39 49.84519 17.13590 39785 ft 493 kts 28°
2026-05-05 17:40 49.90482 17.18891 39783 ft 493 kts 28°
2026-05-05 17:40 49.96428 17.24193 39785 ft 493 kts 28°
2026-05-05 17:41 50.02383 17.29517 39785 ft 494 kts 28°
2026-05-05 17:41 50.08294 17.34817 39783 ft 494 kts 28°
2026-05-05 17:42 50.14244 17.40167 39780 ft 493 kts 28°
2026-05-05 17:42 50.20189 17.45530 39781 ft 494 kts 28°
2026-05-05 17:43 50.26129 17.50902 39779 ft 494 kts 28°
2026-05-05 17:43 50.29199 17.53243 39800 ft 490 kts 16°
2026-05-05 17:43 50.32485 17.54579 39782 ft 487 kts
2026-05-05 17:44 50.39196 17.56023 39763 ft 486 kts
2026-05-05 17:44 50.45737 17.58009 39761 ft 481 kts
2026-05-05 17:45 50.52401 17.60014 39768 ft 495 kts
2026-05-05 17:45 50.59233 17.62085 39761 ft 502 kts
2026-05-05 17:46 50.66095 17.64176 39758 ft 501 kts
2026-05-05 17:46 50.72954 17.66264 39757 ft 501 kts
2026-05-05 17:47 50.79794 17.68461 39756 ft 502 kts 10°
2026-05-05 17:47 50.86625 17.70730 39756 ft 502 kts
2026-05-05 17:48 50.93432 17.73232 39755 ft 503 kts 12°
2026-05-05 17:48 51.00225 17.75876 39756 ft 503 kts 11°
2026-05-05 17:49 51.07026 17.78440 39760 ft 503 kts 11°
2026-05-05 17:49 51.13859 17.81083 39766 ft 506 kts 11°
2026-05-05 17:50 51.20708 17.83704 39763 ft 506 kts 11°
2026-05-05 17:50 51.27553 17.86353 39767 ft 506 kts 11°
2026-05-05 17:51 51.34401 17.88998 39767 ft 506 kts 11°
2026-05-05 17:51 51.41246 17.91659 39776 ft 506 kts 11°
2026-05-05 17:52 51.48086 17.94320 39776 ft 506 kts 11°
2026-05-05 17:52 51.54922 17.96991 39783 ft 505 kts 11°
2026-05-05 17:53 51.61751 17.99667 39782 ft 505 kts 11°
2026-05-05 17:53 51.68556 18.02341 39782 ft 507 kts 11°
2026-05-05 17:54 51.75417 18.05046 39791 ft 507 kts 11°
2026-05-05 17:54 51.82262 18.07753 39795 ft 507 kts 11°
2026-05-05 17:55 51.89118 18.10473 39796 ft 507 kts 11°
2026-05-05 17:55 51.95971 18.13200 39796 ft 507 kts 11°
2026-05-05 17:56 52.02820 18.15935 39799 ft 507 kts 11°
2026-05-05 17:56 52.09673 18.18679 39807 ft 508 kts 11°
2026-05-05 17:56 52.13075 18.20047 39760 ft 496 kts 11°
2026-05-05 17:57 52.16377 18.21380 39741 ft 482 kts 11°
2026-05-05 17:57 52.19582 18.22669 39718 ft 469 kts 10°
2026-05-05 17:57 52.22712 18.23929 39679 ft 457 kts 10°
2026-05-05 17:57 52.25758 18.25158 39641 ft 445 kts 10°
2026-05-05 17:58 52.28734 18.26364 39563 ft 430 kts 10°
2026-05-05 17:58 52.31599 18.27526 38788 ft 424 kts 10°
2026-05-05 17:58 52.34448 18.28676 38001 ft 418 kts
2026-05-05 17:58 52.37241 18.29811 37202 ft 409 kts
2026-05-05 17:59 52.39286 18.30644 36597 ft 404 kts
2026-05-05 17:59 52.41991 18.31746 35827 ft 397 kts
2026-05-05 17:59 52.44642 18.32825 35066 ft 390 kts
2026-05-05 17:59 52.47258 18.33891 34333 ft 384 kts
2026-05-05 18:00 52.49836 18.34945 33585 ft 378 kts
2026-05-05 18:00 52.52371 18.35980 32712 ft 374 kts
2026-05-05 18:00 52.54884 18.37007 31848 ft 370 kts
2026-05-05 18:00 52.57366 18.38025 31032 ft 366 kts
2026-05-05 18:01 52.59829 18.39036 30225 ft 363 kts
2026-05-05 18:01 52.62234 18.40029 29877 ft 348 kts
2026-05-05 18:01 52.64571 18.40990 29561 ft 350 kts
2026-05-05 18:01 52.66981 18.41966 29233 ft 360 kts
2026-05-05 18:02 52.69396 18.42966 28889 ft 357 kts
2026-05-05 18:02 52.71796 18.43967 28543 ft 353 kts
2026-05-05 18:02 52.74166 18.44946 28207 ft 350 kts
2026-05-05 18:02 52.76523 18.45917 27869 ft 347 kts
2026-05-05 18:03 52.78851 18.46880 27536 ft 345 kts
2026-05-05 18:03 52.81181 18.47847 27224 ft 345 kts
2026-05-05 18:03 52.83514 18.48814 26903 ft 347 kts
2026-05-05 18:03 52.85852 18.49786 26577 ft 345 kts
2026-05-05 18:04 52.88166 18.50750 26257 ft 342 kts
2026-05-05 18:04 52.90465 18.51708 25930 ft 339 kts
2026-05-05 18:04 52.92740 18.52654 25625 ft 338 kts
2026-05-05 18:04 52.95023 18.53605 25312 ft 339 kts
2026-05-05 18:05 52.97306 18.54558 24999 ft 339 kts
2026-05-05 18:05 52.99588 18.55516 24676 ft 336 kts
2026-05-05 18:05 53.01849 18.56463 24372 ft 334 kts
2026-05-05 18:05 53.04093 18.57403 24063 ft 331 kts
2026-05-05 18:06 53.06292 18.58324 23763 ft 330 kts
2026-05-05 18:06 53.07798 18.58955 23563 ft 331 kts
2026-05-05 18:06 53.10787 18.60213 23116 ft 330 kts
2026-05-05 18:06 53.13019 18.61153 22689 ft 330 kts
2026-05-05 18:07 53.15229 18.62085 22353 ft 326 kts
2026-05-05 18:07 53.17382 18.62994 22051 ft 322 kts
2026-05-05 18:07 53.19553 18.63909 21760 ft 322 kts
2026-05-05 18:07 53.21735 18.64829 21467 ft 323 kts
2026-05-05 18:08 53.23903 18.65748 21172 ft 322 kts
2026-05-05 18:08 53.26064 18.66666 20869 ft 317 kts
2026-05-05 18:08 53.28203 18.67572 20587 ft 318 kts
2026-05-05 18:08 53.30354 18.68481 20296 ft 319 kts
2026-05-05 18:09 53.32500 18.69395 20006 ft 316 kts
2026-05-05 18:09 53.34610 18.70296 19717 ft 314 kts
2026-05-05 18:09 53.36740 18.71199 19429 ft 316 kts
2026-05-05 18:09 53.38857 18.72101 19143 ft 312 kts
2026-05-05 18:10 53.40952 18.72998 18856 ft 309 kts 10°
2026-05-05 18:10 53.43040 18.73888 18580 ft 311 kts 10°
2026-05-05 18:10 53.45139 18.74783 18298 ft 311 kts 10°
2026-05-05 18:10 53.47225 18.75679 17995 ft 307 kts 10°
2026-05-05 18:11 53.49279 18.76561 17694 ft 304 kts
2026-05-05 18:11 53.51331 18.77437 17413 ft 305 kts
2026-05-05 18:11 53.53393 18.78321 17140 ft 305 kts
2026-05-05 18:11 53.55445 18.79205 16862 ft 302 kts
2026-05-05 18:12 53.57463 18.80075 16584 ft 297 kts
2026-05-05 18:12 53.59468 18.80936 16311 ft 298 kts
2026-05-05 18:12 53.61485 18.81803 16020 ft 299 kts
2026-05-05 18:12 53.63470 18.82663 15834 ft 293 kts
2026-05-05 18:13 53.65454 18.83518 15587 ft 295 kts
2026-05-05 18:13 53.67416 18.84364 15323 ft 293 kts
2026-05-05 18:13 53.69371 18.85214 15057 ft 288 kts
2026-05-05 18:13 53.71312 18.86053 14793 ft 289 kts
2026-05-05 18:14 53.73260 18.86894 14530 ft 289 kts
2026-05-05 18:14 53.75195 18.87736 14261 ft 284 kts
2026-05-05 18:14 53.77092 18.88562 13990 ft 282 kts
2026-05-05 18:14 53.78996 18.89386 13736 ft 283 kts
2026-05-05 18:15 53.80903 18.90215 13454 ft 282 kts
2026-05-05 18:15 53.82799 18.91042 13176 ft 281 kts
2026-05-05 18:15 53.84693 18.91868 12909 ft 280 kts
2026-05-05 18:15 53.86577 18.92690 12652 ft 277 kts
2026-05-05 18:16 53.88428 18.93500 12398 ft 275 kts
2026-05-05 18:16 53.90291 18.94311 12144 ft 278 kts
2026-05-05 18:16 53.92162 18.95129 11884 ft 277 kts 10°
2026-05-05 18:16 53.94026 18.95947 11629 ft 276 kts 10°
2026-05-05 18:17 53.95864 18.96755 11367 ft 270 kts 10°
2026-05-05 18:17 53.97696 18.97556 11106 ft 273 kts 10°
2026-05-05 18:17 53.99521 18.98357 10846 ft 270 kts 10°
2026-05-05 18:17 54.01349 18.99160 10595 ft 272 kts 10°
2026-05-05 18:18 54.03170 18.99962 10337 ft 265 kts 11°
2026-05-05 18:18 54.04960 19.00752 10079 ft 268 kts 10°
2026-05-05 18:18 54.06767 19.01544 9835 ft 269 kts 11°
2026-05-05 18:18 54.08575 19.02343 9574 ft 266 kts 11°
2026-05-05 18:19 54.10336 19.03124 9304 ft 261 kts 11°
2026-05-05 18:19 54.12105 19.03903 9034 ft 258 kts 11°
2026-05-05 18:19 54.13776 19.04647 8870 ft 245 kts 11°
2026-05-05 18:19 54.15477 19.05249 8544 ft 253 kts
2026-05-05 18:20 54.17199 19.05326 8202 ft 245 kts 352°
2026-05-05 18:20 54.18872 19.04905 7874 ft 242 kts 342°
2026-05-05 18:20 54.20473 19.04008 7574 ft 240 kts 332°
2026-05-05 18:20 54.21934 19.02692 7250 ft 235 kts 323°
2026-05-05 18:21 54.23210 19.01012 6998 ft 228 kts 311°
2026-05-05 18:21 54.24295 18.99006 6793 ft 233 kts 307°
2026-05-05 18:21 54.25241 18.96783 6494 ft 230 kts 297°
2026-05-05 18:21 54.25923 18.94326 6197 ft 228 kts 290°
2026-05-05 18:22 54.26540 18.91839 5912 ft 226 kts 291°
2026-05-05 18:22 54.27152 18.89359 5601 ft 227 kts 291°
2026-05-05 18:22 54.27768 18.86873 5288 ft 227 kts 291°
2026-05-05 18:22 54.28382 18.84391 4978 ft 225 kts 291°
2026-05-05 18:23 54.28996 18.81922 4671 ft 226 kts 292°
2026-05-05 18:23 54.29606 18.79480 4364 ft 227 kts 292°
2026-05-05 18:23 54.30216 18.77012 4054 ft 221 kts 293°
2026-05-05 18:23 54.30798 18.74670 3745 ft 207 kts 294°
2026-05-05 18:24 54.31346 18.72475 3490 ft 193 kts 294°
2026-05-05 18:24 54.31841 18.70467 3224 ft 174 kts 294°
2026-05-05 18:24 54.32312 18.68588 2997 ft 170 kts 295°
2026-05-05 18:24 54.32767 18.66750 2772 ft 161 kts 295°
2026-05-05 18:25 54.33185 18.65061 2562 ft 151 kts 295°
2026-05-05 18:25 54.33452 18.63973 2422 ft 148 kts 295°
2026-05-05 18:25 54.33994 18.61827 2155 ft 147 kts 296°
2026-05-05 18:25 54.34391 18.60218 1958 ft 147 kts 295°
2026-05-05 18:26 54.34788 18.58608 1763 ft 146 kts 296°
2026-05-05 18:26 54.35183 18.56996 1563 ft 147 kts 295°
2026-05-05 18:26 54.35578 18.55395 1320 ft 146 kts 296°
2026-05-05 18:26 54.35974 18.53786 1072 ft 146 kts 295°
2026-05-05 18:27 54.36367 18.52200 879 ft 145 kts 295°
2026-05-05 18:27 54.36764 18.50621 722 ft 144 kts 294°
2026-05-05 18:27 54.37156 18.49031 549 ft 143 kts 293°
2026-05-05 18:27 54.37494 18.47648 468 ft 107 kts 291°
2026-05-05 18:28 54.37844 18.46270 464 ft 46 kts 292°
2026-05-05 18:28 54.37962 18.45797 461 ft 31 kts 293°
2026-05-05 18:28 54.38030 18.45597 461 ft 4 kts 336°
2026-05-05 18:29 54.38100 18.45621 460 ft 15 kts 23°
2026-05-05 18:29 54.38146 18.45756 460 ft 13 kts 96°
2026-05-05 18:29 54.38117 18.45892 461 ft 11 kts 113°
2026-05-05 18:29 54.38090 18.46002 465 ft 10 kts 113°
2026-05-05 18:30 54.38059 18.46127 464 ft 12 kts 113°
2026-05-05 18:30 54.38025 18.46266 465 ft 12 kts 112°
2026-05-05 18:30 54.37990 18.46408 465 ft 14 kts 112°
2026-05-05 18:30 54.37956 18.46548 465 ft 12 kts 112°
2026-05-05 18:31 54.37934 18.46643 465 ft 1 kts 112°
2026-05-05 18:31 54.37933 18.46648 465 ft 1 kts 113°
2026-05-05 18:31 54.37926 18.46675 465 ft 4 kts 114°
2026-05-05 18:31 54.37908 18.46742 465 ft 7 kts 114°
2026-05-05 18:32 54.37881 18.46847 465 ft 12 kts 114°
2026-05-05 18:32 54.37845 18.46986 465 ft 12 kts 114°
2026-05-05 18:32 54.37840 18.47032 465 ft 2 kts 79°
2026-05-05 18:32 54.37853 18.47053 465 ft 3 kts 35°
2026-05-05 18:33 54.37889 18.47083 465 ft 7 kts 22°
2026-05-05 18:33 54.37901 18.47092 465 ft 0 kts 22°